Location: �terpigny
(49.8910°N, 2.9249°E)
Time: 04:23:06
(UTC+00:00)

EO-88 - Pass Details

Date: 02 July 2022
Orbit: 454 x 462 km, 97.3° (Epoch: 07 August)

Event Time Altitude Azimuth Distance (km) Brightness Sun altitude
Exits shadow 21:22:58 10° 180° (S) 1,652 ? -9.9°
Reaches altitude 10° 21:23:02 10° 180° (S) 1,623 ? -9.9°
Maximum altitude 21:26:27 55° 260° (W) 570 ? -10.3°
Drops below altitude 10° 21:29:55 10° 339° (NNW) 1,635 ? -10.6°
Sets 21:32:00 0° 344° (NNW) 2,515 ? -10.7°
